Location: Croagnes
(43.9363°N, 5.3265°E)
Time: 22:21:45
(UTC+00:00)

Meteor 1-16 Rocket - Pass Details

Date: 03 October 2020
Orbit: 790 x 908 km, 81.2° (Epoch: 22 October)

Event Time Altitude Azimuth Distance (km) Brightness Sun altitude
Exits shadow 20:42:49 35° 272° (W) 1,417 5.6 -36.4°
Maximum altitude 20:43:34 36° 288° (WNW) 1,382 5.6 -36.5°
Drops below altitude 10° 20:48:55 10° 355° (N) 2,553 7.1 -37.3°
Sets 20:51:34 0° 4° (N) 3,479 7.8 -37.7°
